Theta_e
339 344 349 353 353 353 357 355 355 360 364 358 356 358 356 359 360 362 363 362 361 362 363 358 356 354 357 361 360 363 362 358 359 359 356 358 352 350 353 349 348 347 351 353 352 351 348 352 355 355 355 355 355 354 354 353 351 353 354 354 355 355 354 354 352 353 354 354 355 356 356 355 355 356 354 354 354 354 354 353 352 351 351 351 349 351 353 353 352 353 351 350 350 351 350 350 351
341 350 353 354 353 356 361 356 359 362 360 353 353 359 356 362 362 362 362 361 362 356 355 355 355 358 358 358 358 362 362 356 355 357 356 354 352 352 353 350 348 348 352 352 352 351 348 351 354 355 355 355 354 354 354 354 353 353 353 352 353 354 354 354 353 352 354 355 355 356 356 355 354 356 355 355 355 354 355 354 353 352 352 353 351 350 351 353 352 352 352 352 352 351 349 350 352
347 353 353 355 356 357 361 358 361 359 355 352 354 363 360 363 365 360 360 360 358 353 352 352 356 359 360 361 360 362 361 354 353 354 354 354 353 353 354 350 347 350 351 352 352 349 347 351 354 355 355 354 354 353 353 354 354 353 353 352 351 352 352 352 352 352 354 355 355 355 355 354 353 355 356 355 354 354 355 354 354 353 353 353 353 351 350 352 352 351 352 353 353 352 351 353 353
353 355 354 356 357 356 364 366 366 360 355 353 351 360 362 361 363 358 358 358 354 357 355 352 357 355 360 366 360 360 360 355 354 353 354 354 353 354 353 349 349 351 351 352 350 346 346 351 354 354 354 354 353 353 352 352 353 353 353 353 352 352 351 351 352 353 354 354 353 353 354 353 352 354 354 353 353 353 353 353 354 354 353 353 353 354 352 352 352 351 352 353 353 352 352 353 352
355 356 354 356 360 358 366 368 367 362 356 359 355 359 366 362 362 359 358 357 356 364 359 356 361 353 355 359 357 361 359 356 355 353 355 354 354 354 351 349 350 352 352 352 348 345 347 350 352 353 354 353 352 351 350 351 352 353 352 353 353 352 352 352 353 354 353 351 350 353 353 353 352 353 353 352 353 353 353 353 354 354 354 354 353 354 354 352 351 351 352 352 352 351 351 351 351
355 356 356 357 358 355 363 364 361 361 359 365 364 366 370 363 362 359 358 360 357 360 356 358 358 355 356 352 354 358 356 356 355 353 355 355 354 353 351 350 351 352 352 350 347 345 348 350 351 352 353 352 350 349 349 350 352 352 350 352 352 352 353 352 354 354 352 349 350 352 352 352 353 352 353 352 353 354 354 353 353 354 354 354 354 354 354 353 352 352 353 353 352 351 350 350 349
356 358 358 356 356 358 365 361 357 362 363 366 367 368 367 363 361 358 362 363 357 355 354 356 352 359 362 353 356 355 353 355 354 354 354 354 354 352 351 351 352 353 351 348 346 345 348 350 350 351 352 351 348 347 350 351 352 351 350 351 351 351 353 352 354 354 351 351 351 353 353 352 352 352 353 352 353 353 353 353 354 354 354 353 353 353 353 353 353 353 353 353 353 352 351 350 349
357 358 358 361 363 366 367 361 359 363 365 366 365 364 363 363 360 359 366 364 359 355 354 353 351 367 365 355 362 357 353 354 353 355 354 354 354 352 352 351 352 352 350 347 346 347 349 350 349 351 351 350 348 348 351 351 351 350 349 351 352 352 352 352 353 353 351 352 352 353 353 352 353 353 352 352 353 353 353 354 354 353 353 353 353 353 352 353 353 353 352 353 353 353 352 352 350
354 355 360 363 366 368 363 361 360 361 368 366 362 362 361 361 360 362 366 363 360 354 355 354 353 367 362 355 361 355 354 355 354 355 354 354 353 352 352 351 352 352 350 346 347 349 351 351 350 351 351 351 351 351 350 349 349 350 350 350 351 351 351 352 352 352 351 352 352 352 352 352 352 352 351 352 353 354 353 354 354 353 352 353 352 352 352 353 353 352 352 352 352 352 352 351 350
354 357 360 364 365 362 356 356 357 361 368 364 360 360 361 360 361 362 364 366 361 354 357 358 358 362 359 356 357 354 355 355 354 354 354 354 352 352 352 351 351 351 349 347 348 350 352 352 351 351 352 352 352 352 350 348 349 349 350 350 351 350 349 351 352 352 352 352 351 351 352 350 351 351 351 351 352 353 354 355 354 353 352 352 352 351 353 352 352 352 352 351 350 351 351 351 350
361 364 362 366 363 353 350 354 358 366 368 363 362 362 362 361 361 362 364 365 359 357 357 360 363 358 357 357 356 355 354 354 354 354 353 353 353 352 352 351 351 351 348 347 349 351 353 352 352 351 351 353 352 353 352 350 349 348 350 351 351 350 349 350 351 352 351 351 350 351 352 350 350 351 352 351 351 352 353 354 354 354 352 352 352 352 353 352 352 351 351 350 350 351 351 352 351
364 370 368 365 356 351 353 356 360 368 369 367 370 367 363 360 364 367 368 362 355 360 356 359 363 357 361 359 356 355 354 355 354 353 353 353 352 352 351 350 351 350 348 348 349 350 351 352 352 351 351 352 352 353 352 350 349 349 351 350 349 350 350 349 351 352 349 349 350 350 351 351 351 351 352 352 351 351 352 354 354 353 351 351 352 352 352 351 351 351 350 350 351 351 352 353 352
362 365 367 358 353 359 363 361 363 367 371 373 371 366 361 364 371 370 370 363 356 360 355 357 356 356 362 356 355 355 354 354 353 353 352 352 352 351 351 350 351 349 348 347 347 347 350 352 352 352 351 352 352 352 350 350 349 350 351 348 348 349 349 349 350 352 349 348 349 349 350 350 351 351 351 351 351 352 352 353 353 352 349 348 349 349 350 350 351 351 351 352 352 352 351 352 352
360 361 364 359 357 365 368 364 364 362 369 375 367 362 361 366 371 367 366 360 357 359 354 353 351 359 363 355 356 354 354 355 353 353 351 352 351 351 351 350 351 350 348 347 346 348 351 352 351 352 351 351 351 351 351 351 351 351 350 349 349 350 350 350 349 350 349 348 348 348 349 348 350 351 351 351 352 352 352 352 352 351 349 346 346 346 347 349 351 351 352 353 352 351 351 351 352
357 364 366 364 361 364 365 364 365 360 364 371 364 362 365 365 363 366 367 359 355 354 351 352 350 359 363 361 363 354 354 355 352 353 351 352 352 351 350 350 351 350 348 347 348 350 351 351 351 351 351 351 351 351 351 351 351 350 349 349 349 350 351 349 348 350 349 349 349 350 349 348 350 351 352 351 352 353 353 353 352 350 348 347 347 346 346 348 350 351 352 352 350 349 350 350 349
357 364 365 362 360 361 362 363 362 358 362 365 359 359 369 371 361 362 364 357 353 350 352 355 349 354 359 360 360 352 353 354 353 353 352 353 352 351 350 350 350 349 349 348 350 350 350 351 350 351 351 351 351 350 349 349 351 349 349 349 349 351 351 350 349 350 350 349 349 349 349 349 349 350 351 351 352 353 353 353 351 348 348 348 348 347 347 346 346 347 349 350 348 348 348 348 347
354 365 367 361 360 360 365 366 359 358 364 361 355 358 368 371 362 362 361 356 356 351 353 354 349 353 356 354 352 352 354 354 354 353 352 353 352 351 350 350 349 349 349 349 350 349 349 350 349 350 350 350 350 351 349 349 350 350 349 348 349 350 350 350 351 351 350 349 349 350 350 349 348 349 350 351 352 353 354 353 349 348 348 348 347 345 345 343 343 343 344 347 347 347 347 346 346
357 367 363 359 365 365 367 370 361 359 362 358 355 360 364 363 362 363 359 358 359 352 352 354 352 352 352 352 351 353 354 354 354 353 353 353 351 351 350 349 349 349 350 350 350 349 349 349 349 349 349 349 350 350 350 349 349 349 348 346 348 349 350 351 351 350 350 350 350 350 350 350 349 349 350 350 350 352 353 351 348 348 347 346 344 341 340 339 341 341 343 344 345 346 346 345 344
361 367 358 363 373 368 367 369 361 356 356 355 356 361 362 362 365 361 358 360 359 356 356 357 356 352 350 351 352 353 353 354 354 353 353 352 351 350 350 350 349 349 349 350 350 349 350 349 349 349 349 349 350 350 350 349 348 348 348 345 347 349 350 351 350 349 350 351 351 350 351 351 350 349 349 350 349 351 352 349 347 347 346 345 342 340 339 337 337 338 340 341 343 345 345 344 342
360 362 362 370 369 361 366 369 363 360 360 358 361 366 362 363 368 362 360 362 357 359 360 361 360 354 352 351 351 353 352 353 353 353 353 352 352 350 350 350 349 349 349 349 349 349 350 348 349 349 348 349 350 350 350 349 347 347 346 343 346 349 349 350 349 349 349 351 351 350 350 350 349 349 349 350 350 351 353 350 347 346 346 345 344 345 343 339 336 335 336 339 341 342 342 341 340
356 355 363 367 358 353 364 370 365 364 364 365 368 367 361 363 369 366 363 362 358 359 360 364 362 352 352 351 351 353 352 353 353 352 352 351 352 351 350 349 349 349 348 349 348 348 349 348 348 348 348 348 348 350 350 349 347 346 345 343 344 344 346 350 350 349 350 350 351 350 349 348 348 347 347 348 350 352 353 351 347 346 347 346 345 345 343 338 334 332 333 336 338 339 338 338 340
353 352 356 355 353 353 363 367 365 368 367 368 370 363 359 363 368 369 365 365 364 358 356 360 357 351 352 351 351 352 352 352 352 352 352 352 351 351 350 350 349 349 348 349 347 348 349 348 348 347 347 347 347 348 348 349 347 346 346 344 344 340 339 348 351 349 349 350 351 350 348 347 347 347 346 349 352 352 352 350 346 346 347 346 345 344 343 339 334 333 333 335 336 336 336 337 340
346 349 349 348 353 356 364 367 366 372 370 370 370 361 360 363 365 365 366 371 369 358 356 357 353 350 351 351 352 352 352 351 352 352 352 352 351 351 351 350 350 349 349 348 347 348 348 348 348 346 346 346 347 347 347 347 345 346 348 347 346 342 338 347 352 348 348 349 349 350 347 346 347 347 347 351 353 352 351 348 345 346 346 345 345 344 344 343 342 340 338 336 335 335 336 339 342
337 343 351 353 359 362 366 368 366 369 371 370 364 356 361 364 357 357 366 374 371 364 357 353 351 351 351 352 352 351 352 352 351 352 351 352 351 351 350 350 349 349 349 349 348 348 348 348 348 347 346 345 346 347 346 345 345 345 347 346 346 345 344 348 351 348 348 349 349 349 347 346 347 348 349 352 352 351 350 347 345 345 345 344 344 345 345 346 346 346 344 342 341 341 342 344 345
331 338 357 365 368 366 364 364 366 368 369 364 358 358 363 364 356 356 367 371 371 369 356 351 351 350 351 352 352 352 352 352 352 352 351 352 351 351 351 350 350 349 349 349 349 348 348 347 347 347 347 345 345 346 346 346 346 347 345 343 345 347 348 349 349 348 348 348 348 349 348 347 348 350 351 352 351 351 348 346 345 344 344 343 344 346 346 347 347 348 348 347 347 347 348 348 348
337 349 365 372 368 363 363 365 367 367 367 360 356 364 366 361 356 360 371 368 367 363 352 352 352 351 352 351 352 352 352 352 351 351 351 351 351 351 351 350 350 350 349 349 349 348 348 347 346 346 346 346 345 346 347 347 347 348 345 343 345 346 348 349 347 347 348 348 348 347 348 348 349 350 351 351 350 349 347 345 345 343 343 344 345 346 346 347 347 347 348 348 348 348 348 347 347
351 365 369 371 368 365 367 369 367 364 365 361 358 365 369 361 354 363 373 363 363 361 353 354 353 352 353 352 352 352 351 352 351 352 351 351 351 351 351 350 350 350 350 350 349 348 348 347 345 345 346 346 346 346 347 348 347 348 346 345 346 346 348 348 346 346 347 347 347 347 348 349 350 350 350 350 348 347 345 344 342 342 343 344 345 345 345 345 345 346 347 347 347 346 346 346 346
358 364 367 370 371 366 364 367 365 361 359 360 362 364 364 360 357 371 374 358 360 361 354 355 354 354 353 352 353 351 351 351 351 351 350 351 351 351 351 350 350 350 350 350 350 349 348 348 345 345 346 347 346 346 347 347 347 347 346 346 346 347 348 348 346 346 347 346 347 347 348 349 349 349 349 347 346 345 344 342 341 341 342 343 344 344 343 344 345 346 346 346 346 346 346 346 346
359 362 371 375 375 369 362 366 366 360 361 363 364 359 363 367 365 375 371 357 360 358 353 355 354 353 353 353 352 351 351 351 351 351 351 351 350 351 351 350 350 350 350 351 351 350 350 349 347 346 347 347 346 346 347 347 346 346 347 346 347 347 348 348 346 346 346 346 346 347 348 348 347 346 346 345 344 344 343 341 341 340 341 342 342 342 342 344 345 346 346 346 345 346 347 346 346
361 367 376 375 370 368 364 365 366 360 362 366 357 351 367 376 366 366 368 361 361 358 352 352 354 354 353 352 352 351 351 350 351 351 351 351 350 351 351 350 350 350 350 350 351 351 351 350 349 348 348 348 347 346 346 347 347 347 346 346 347 347 348 348 347 347 347 346 346 347 349 348 346 344 343 343 342 342 342 341 340 340 340 339 340 341 343 344 345 345 346 345 345 347 348 347 346
362 361 368 368 352 356 362 360 365 361 358 364 353 347 364 376 366 361 365 365 363 360 354 350 352 352 352 352 352 351 350 350 351 350 351 350 350 350 350 350 349 349 350 350 350 350 350 351 350 350 349 348 347 346 346 346 347 346 346 347 347 347 348 348 348 348 348 347 347 347 349 349 347 344 342 342 341 341 341 340 339 339 339 339 341 342 344 344 345 347 346 345 346 347 348 347 345
350 344 351 360 347 360 372 359 363 366 361 361 353 353 365 368 365 361 363 366 365 362 357 353 353 352 350 351 351 351 350 349 349 350 350 350 350 350 349 349 349 350 350 349 350 350 351 350 350 350 349 349 347 346 346 346 347 346 346 347 347 347 348 348 347 348 348 348 348 347 348 349 348 345 343 342 341 340 340 339 340 341 341 341 343 344 344 345 347 348 346 346 347 347 347 345 345
334 334 339 351 350 358 364 356 361 369 367 362 356 360 368 359 357 362 365 365 365 365 360 358 360 357 352 350 350 350 349 349 348 348 349 349 349 349 348 349 350 350 349 350 350 350 351 350 350 350 349 348 347 346 346 346 346 347 346 347 348 347 347 347 347 347 348 348 347 347 346 347 347 346 344 342 341 340 340 340 341 341 342 343 345 346 346 346 348 348 347 347 347 347 346 344 344
322 324 327 341 352 350 349 353 358 364 369 367 361 363 370 363 358 362 367 365 364 365 362 359 363 361 357 354 352 350 349 349 348 346 347 349 349 349 349 349 349 350 349 349 350 350 350 350 350 350 349 348 347 346 346 345 346 346 346 347 348 347 347 348 347 347 347 348 347 346 345 345 345 346 345 343 341 340 341 341 341 341 343 345 347 348 348 348 348 348 347 347 347 346 345 344 344
319 320 322 330 341 341 346 351 354 361 367 368 368 367 370 368 362 362 367 366 364 363 360 359 361 360 359 358 356 354 351 349 347 344 345 346 348 349 349 349 348 350 350 349 350 350 350 350 350 350 349 348 347 347 346 345 346 347 347 347 348 347 347 348 348 347 347 347 347 347 345 344 343 344 345 343 341 341 341 340 341 342 345 347 348 349 350 348 348 348 346 346 347 346 344 344 343
324 331 334 330 326 328 346 359 359 362 367 369 370 369 370 369 366 365 368 367 363 362 360 360 362 362 360 360 359 357 355 353 347 343 344 346 347 349 349 350 349 349 349 348 348 349 350 350 350 350 349 348 347 347 346 346 347 347 347 347 347 347 347 347 347 347 347 347 347 348 346 343 342 343 344 343 342 343 343 342 342 343 346 348 348 349 350 347 346 346 346 345 346 345 345 343 341
322 329 328 325 321 320 336 354 359 360 364 367 367 367 369 369 367 366 368 368 366 364 362 363 367 367 365 363 361 359 358 354 347 344 344 345 346 349 349 350 350 349 348 348 348 348 350 351 350 350 349 348 348 347 347 347 347 347 347 347 347 347 347 347 347 347 347 347 347 347 346 343 341 342 343 343 343 345 346 345 344 344 347 348 349 350 349 347 346 346 346 345 345 344 344 342 340
318 318 317 319 320 321 333 348 357 360 360 361 363 365 368 366 363 363 367 370 369 368 366 366 369 368 365 363 362 360 358 356 352 348 346 345 347 348 349 349 349 349 347 348 348 348 350 350 350 350 349 349 348 348 347 347 347 347 347 347 347 346 347 348 348 346 345 346 346 346 345 342 340 341 342 343 345 347 347 347 345 345 346 348 350 350 349 348 347 346 345 344 344 344 344 342 341
317 317 316 317 320 325 335 350 359 358 356 361 365 365 369 369 364 365 370 373 370 367 367 367 368 371 369 365 363 360 359 360 358 354 348 347 348 348 348 349 349 348 348 348 348 348 350 350 350 350 349 349 349 348 348 347 347 346 347 347 346 346 347 347 349 347 346 347 346 346 345 342 340 340 341 343 346 347 347 347 347 346 346 347 349 350 348 349 348 346 345 344 344 344 343 343 341
317 319 315 314 321 320 322 341 359 357 351 360 367 366 373 377 369 365 363 366 366 361 361 362 360 365 366 361 357 357 359 360 358 355 351 348 348 348 348 348 349 348 348 349 348 348 349 350 349 349 349 349 349 348 348 347 347 347 347 347 346 346 347 347 348 349 348 347 346 346 345 342 341 341 341 344 347 347 347 347 347 347 347 347 349 350 349 349 348 346 345 344 344 344 343 343 342
320 319 315 317 320 320 325 342 358 355 349 359 366 358 367 379 371 365 360 359 363 360 360 360 358 357 355 353 352 351 354 356 355 354 353 350 348 348 347 348 349 348 348 349 347 347 349 349 349 349 349 349 349 348 348 347 347 347 347 347 347 347 347 347 348 348 348 348 347 346 345 343 341 340 342 346 348 347 347 347 347 347 348 349 349 350 349 348 347 346 345 344 344 344 342 344 343
319 319 321 320 316 329 349 357 354 349 346 357 356 340 352 376 373 369 368 363 364 363 363 365 364 357 352 352 352 350 352 354 353 352 351 350 349 348 348 348 348 348 348 348 347 347 349 349 349 349 349 349 348 348 347 347 347 347 347 347 347 347 347 348 348 348 347 347 347 345 344 343 342 341 344 347 348 347 347 347 346 348 349 350 350 349 349 348 347 347 346 345 344 344 343 343 344
316 321 323 320 322 344 361 357 350 347 344 352 355 339 342 362 367 368 370 369 370 367 366 368 365 356 350 352 351 349 351 352 351 350 349 349 349 348 348 347 347 348 348 348 348 348 349 349 349 349 349 349 348 348 347 347 348 348 347 347 347 347 347 347 347 347 347 346 346 345 344 345 345 345 347 349 348 347 346 346 346 348 350 350 349 348 348 348 348 347 347 346 344 345 344 343 345
316 321 322 323 336 357 359 351 350 354 349 350 362 351 338 347 358 361 362 367 371 370 369 371 367 360 354 353 352 349 348 350 351 349 349 349 349 348 347 347 347 348 348 349 348 349 350 349 348 348 349 348 348 348 347 348 347 348 348 347 347 347 347 347 347 347 346 345 345 344 343 345 347 349 349 349 348 346 346 345 345 348 350 349 347 348 349 349 349 349 349 348 346 347 346 344 345
320 323 329 333 344 355 352 349 352 355 343 338 353 349 336 347 360 359 361 364 368 372 373 373 372 367 361 356 353 350 348 348 349 348 349 349 348 347 346 347 348 348 348 348 349 349 349 348 347 348 349 348 348 348 348 348 348 348 348 347 347 347 347 347 346 346 346 345 345 344 343 345 347 349 349 349 348 346 345 345 345 347 349 348 347 349 352 350 349 350 350 349 348 348 347 346 346
321 325 338 340 343 350 350 353 351 346 337 333 344 344 336 347 359 357 357 360 369 378 374 371 369 365 362 357 352 350 348 347 348 348 349 347 346 347 346 346 348 348 347 348 349 349 348 348 348 348 348 349 349 349 349 348 348 348 348 347 347 347 347 347 346 346 346 345 345 344 343 344 347 349 349 349 348 346 345 346 346 346 348 348 348 351 353 351 349 350 351 351 350 349 347 347 346
320 330 341 335 339 351 358 365 353 338 339 337 338 343 337 341 354 358 357 361 369 375 373 372 371 366 362 357 351 348 347 347 348 348 349 347 346 346 346 347 347 347 348 348 348 348 348 348 348 348 348 349 349 349 349 349 348 349 348 347 347 346 347 347 346 346 346 345 344 344 343 342 345 348 349 349 349 347 347 347 346 346 348 347 347 351 353 352 350 350 351 352 352 350 348 347 347
324 337 343 331 334 342 345 352 344 333 339 339 338 344 337 336 346 352 358 363 363 366 372 377 377 372 365 358 352 348 346 347 348 348 348 347 346 347 347 348 347 347 348 348 348 347 347 348 348 348 347 348 349 349 349 349 348 349 348 348 347 347 346 346 346 346 346 345 344 343 342 341 343 346 348 348 349 349 349 348 347 347 347 347 348 350 352 352 351 350 350 351 351 350 348 347 348
327 334 338 327 326 330 330 335 336 335 337 335 339 342 335 340 349 349 358 366 365 367 369 369 373 371 364 359 355 350 347 347 347 348 347 346 347 348 348 348 347 347 347 347 347 347 347 347 348 348 347 348 349 349 349 349 349 348 348 348 348 347 347 346 345 345 345 345 345 344 344 342 342 345 346 347 347 348 349 348 348 348 347 348 349 350 352 352 351 351 350 350 350 350 349 348 348
322 325 328 323 323 324 326 332 332 331 333 335 343 341 334 342 348 348 356 360 361 364 361 358 362 365 364 360 356 351 349 349 348 347 347 347 348 349 349 348 347 347 347 347 347 347 347 347 346 347 347 347 348 349 349 349 349 349 348 348 348 347 346 345 345 345 344 344 345 346 345 343 342 343 345 345 344 345 346 347 347 348 348 349 350 351 351 352 351 352 351 350 351 350 349 349 349
322 328 328 323 327 323 321 328 327 326 335 341 340 334 334 339 340 345 354 355 356 358 356 356 356 359 360 357 356 354 353 351 348 346 348 348 349 350 350 349 348 347 348 347 347 347 347 346 345 346 346 346 347 348 349 349 349 349 348 348 347 347 346 345 345 345 344 344 345 346 345 343 341 341 344 344 341 340 342 344 344 347 349 350 350 350 351 351 351 352 351 351 352 352 349 348 348
319 327 324 317 325 330 323 326 332 334 338 340 336 335 344 347 344 351 356 356 361 361 357 359 359 358 358 357 358 357 355 354 350 348 349 350 351 351 350 349 348 347 347 347 347 347 347 346 346 346 347 346 346 348 349 348 348 348 348 348 347 347 346 345 345 345 345 344 345 345 344 343 341 341 344 342 338 338 342 344 343 344 348 350 350 350 350 350 351 352 351 351 351 351 349 348 348
320 320 319 316 325 338 329 322 333 337 332 334 338 344 356 350 342 354 359 354 360 365 364 361 360 360 358 359 360 357 356 355 352 351 351 352 353 352 350 350 348 347 347 346 347 347 347 347 346 346 347 346 346 348 349 348 348 348 348 347 347 346 345 345 345 345 345 344 344 345 344 343 342 342 342 338 337 341 344 344 342 342 346 350 351 351 351 351 351 352 352 351 350 350 349 348 348
324 318 320 324 323 332 330 324 334 336 330 339 343 345 352 344 338 351 358 354 355 362 367 362 359 359 359 360 359 356 356 355 353 353 351 352 353 352 351 350 348 347 346 346 346 347 347 346 345 346 348 347 347 348 349 349 349 348 348 348 347 347 346 345 345 345 345 345 345 346 345 342 342 340 338 337 340 343 343 343 343 343 345 350 352 352 352 351 351 352 352 351 349 349 350 349 349
325 322 324 324 320 323 323 322 331 331 331 344 347 345 346 343 347 353 352 356 358 358 366 366 362 362 360 360 359 354 353 353 354 354 353 352 352 351 352 351 350 348 347 346 345 345 346 345 345 347 348 349 348 348 349 349 349 349 348 348 347 347 347 345 345 345 345 345 344 346 346 343 341 339 338 340 343 343 343 344 345 345 346 350 352 352 352 352 352 352 352 350 349 349 350 349 349
325 326 327 326 328 327 320 319 326 331 335 339 338 340 344 348 361 365 360 366 365 361 371 375 370 367 362 359 358 354 352 352 353 353 353 352 351 350 351 349 350 349 347 347 346 345 346 345 346 347 348 350 349 349 349 348 349 349 348 348 348 347 347 346 345 345 345 344 344 345 346 344 343 341 341 343 344 344 344 345 346 347 347 350 352 352 352 352 352 351 351 350 349 349 350 350 349
323 323 322 322 324 323 321 321 322 330 341 341 334 337 348 357 365 369 370 372 367 366 374 377 373 370 365 360 358 355 353 351 351 352 352 352 351 351 350 348 349 349 348 348 347 346 346 345 346 347 348 349 349 349 349 349 349 349 348 348 348 347 347 346 345 345 344 345 346 346 345 344 343 342 342 344 344 344 345 345 346 348 349 349 351 351 351 351 351 351 351 350 349 349 349 349 350
330 328 323 323 323 321 323 322 321 330 340 342 337 333 345 359 360 363 367 367 366 369 372 375 375 372 369 366 361 357 355 353 351 351 351 351 351 351 351 350 349 349 348 348 347 347 346 346 346 347 348 349 349 349 349 349 348 348 348 347 347 347 347 346 345 345 344 346 348 347 345 343 343 342 342 343 344 344 345 345 346 348 349 349 349 350 350 350 350 350 350 350 350 349 349 348 349
Wind_Speed
10 9 7 5 4 3 2 2 1 1 2 2 1 1 2 2 1 1 4 2 1 1 2 1 2 4 2 2 5 4 2 3 4 3 2 2 6 18 16 14 24 25 24 20 18 18 16 15 13 14 13 12 13 14 13 13 12 11 11 11 11 12 12 11 11 11 10 10 11 12 13 13 14 14 14 14 15 16 17 17 17 17 16 13 12 14 16 17 18 18 17 18 18 16 15 15 14
11 9 7 5 3 1 1 2 2 2 3 2 2 1 3 4 2 3 5 3 1 2 2 1 2 3 4 4 5 3 2 2 1 2 1 5 13 16 11 16 25 25 24 20 19 18 17 16 14 14 13 12 12 12 12 12 12 11 11 10 10 10 10 10 10 10 10 9 9 9 10 10 10 11 12 13 13 15 16 17 18 18 18 16 14 13 15 16 18 19 18 18 18 16 14 15 14
9 8 7 5 1 1 1 2 2 1 3 2 2 3 3 4 3 4 5 4 4 4 2 3 3 3 4 4 2 1 1 2 2 2 3 11 13 12 12 19 25 24 23 20 19 17 17 16 14 14 12 12 12 12 11 11 11 10 10 10 10 9 8 9 8 9 8 7 7 7 7 7 8 8 10 12 12 13 15 16 17 18 18 19 17 14 14 15 17 18 18 17 17 16 15 14 14
8 6 4 3 1 2 2 2 2 3 3 2 1 3 2 2 5 5 5 5 4 2 0 3 2 2 3 3 1 1 1 1 3 2 4 9 9 14 16 21 25 23 22 20 18 17 17 16 14 14 12 12 12 11 11 10 10 9 9 10 10 9 9 8 8 7 6 6 6 7 7 7 8 8 9 12 12 12 15 16 17 18 19 20 20 17 16 16 17 17 16 16 17 16 15 14 14
6 5 2 1 2 1 2 2 1 3 2 2 1 3 3 3 5 6 6 5 2 1 1 2 2 1 4 3 0 1 1 1 3 4 5 7 11 16 19 23 25 22 21 19 18 18 17 15 14 13 12 12 11 11 10 10 9 8 9 9 10 10 9 9 8 6 7 7 8 8 9 8 8 9 9 12 13 12 14 16 17 18 18 18 20 19 18 18 18 18 16 16 17 16 15 14 13
6 4 3 1 1 1 2 2 2 3 0 1 2 3 3 3 4 5 7 6 1 2 1 1 3 3 3 1 1 2 1 2 4 4 7 9 13 17 20 23 22 21 21 19 18 17 16 14 13 13 12 11 11 10 10 9 8 7 7 8 8 9 9 9 8 7 8 9 9 10 10 9 9 11 11 11 12 11 13 15 17 17 17 17 18 19 19 19 19 19 18 18 18 17 16 14 12
4 2 1 1 1 1 3 3 3 2 1 0 1 3 4 3 3 3 6 4 2 2 2 2 5 5 2 1 0 2 2 2 4 6 10 13 16 18 21 21 20 20 20 19 18 17 16 14 13 12 11 11 11 10 10 9 9 7 6 6 6 8 7 8 7 7 9 8 8 9 11 10 9 11 11 12 11 11 12 15 18 18 18 18 18 19 19 19 19 20 19 19 20 19 18 15 13
2 1 0 3 1 3 2 2 2 1 2 2 2 4 4 4 2 2 3 1 1 1 2 3 4 4 1 1 1 4 5 3 5 10 13 15 18 19 20 20 19 18 18 19 18 17 15 13 13 12 11 11 10 10 9 9 8 7 6 6 5 6 7 7 5 6 8 8 7 6 10 11 11 10 11 13 11 10 12 14 17 18 18 18 18 18 19 19 18 20 20 19 20 20 20 18 15
0 1 0 3 2 3 2 1 1 2 2 3 3 4 4 4 2 1 2 2 2 1 2 3 3 3 0 4 2 2 5 7 11 13 15 16 18 20 21 20 19 18 18 19 18 17 14 13 13 12 11 11 9 9 8 8 8 6 6 6 5 6 7 8 5 6 7 6 5 4 8 9 10 9 11 13 12 11 12 14 17 18 19 19 19 19 19 19 18 19 20 19 19 19 19 17 16
1 1 1 2 2 3 2 1 1 2 3 2 4 5 4 2 2 2 2 3 3 2 2 4 6 4 3 4 2 2 4 11 15 14 15 17 18 20 21 19 18 18 20 20 18 15 13 12 11 12 11 10 9 8 7 7 7 6 6 7 6 7 7 7 6 7 8 5 5 5 7 9 8 7 10 14 13 12 11 13 17 18 19 20 20 20 19 19 19 19 20 19 19 19 18 16 14
2 2 2 3 3 2 1 1 2 2 3 2 4 5 3 2 2 2 3 4 2 3 3 4 5 4 4 3 1 0 6 12 14 15 15 17 18 21 20 16 16 19 21 20 17 14 13 11 10 11 10 9 9 8 6 6 7 7 7 7 8 8 7 8 7 6 7 7 6 7 8 10 10 7 10 14 14 13 11 12 16 18 20 20 21 21 20 20 20 19 20 19 19 18 17 15 14
2 2 3 3 2 1 2 2 3 3 3 2 3 3 1 1 1 1 1 2 2 5 3 2 4 4 4 1 0 3 8 9 11 15 15 16 18 19 18 15 16 20 20 19 17 13 12 10 9 10 9 9 8 9 7 6 7 7 7 8 8 8 8 9 8 7 8 9 8 9 10 10 11 10 10 12 14 13 12 13 16 19 20 20 21 20 20 21 20 20 19 18 17 17 17 16 16
1 0 3 1 1 2 1 1 3 2 3 2 2 3 2 2 1 1 1 0 4 4 2 4 7 5 3 1 2 4 8 9 12 14 15 16 17 17 17 16 18 20 20 18 15 12 12 11 9 9 9 9 8 9 7 7 8 8 7 7 7 9 8 9 9 8 9 10 10 11 12 10 10 10 10 12 13 12 13 14 17 20 20 20 20 20 20 20 20 18 18 17 16 17 17 18 17
1 1 3 1 0 1 2 1 2 2 2 2 2 3 1 2 2 1 1 3 4 3 2 6 8 5 3 3 2 4 7 12 14 14 15 16 16 16 16 17 18 19 19 17 14 13 12 10 9 8 8 9 9 9 8 8 8 8 8 6 6 8 8 8 9 9 9 11 11 11 13 13 11 9 10 13 13 11 13 15 18 19 19 20 20 20 19 19 18 17 16 16 16 17 17 17 16
2 1 3 1 1 1 1 2 2 2 3 3 3 3 1 3 2 1 2 4 3 3 5 5 5 2 3 6 4 5 11 16 15 15 16 15 14 15 16 17 17 19 18 16 14 13 12 10 10 9 8 8 8 9 9 9 8 9 8 7 7 7 8 8 9 10 11 12 12 12 13 14 13 10 10 13 12 12 13 15 17 18 19 19 19 19 18 17 17 16 16 16 16 16 16 15 14
2 2 3 1 1 2 2 3 3 2 4 4 3 1 1 4 1 1 3 2 1 4 4 3 2 0 5 6 4 11 18 19 16 16 17 14 14 15 15 15 16 18 17 16 15 13 12 11 10 10 9 9 8 8 9 9 9 9 9 9 8 8 8 9 10 10 13 14 13 13 13 14 14 11 11 14 12 12 14 15 17 18 18 18 18 18 17 17 17 16 16 15 15 14 13 13 12
2 3 2 1 1 2 3 4 4 3 4 5 2 3 2 4 1 0 3 2 2 4 2 2 2 3 4 4 9 20 22 20 18 17 16 14 15 15 14 15 16 17 17 16 15 14 13 11 11 11 10 10 10 9 9 10 9 10 11 11 10 10 8 8 9 10 12 13 13 14 13 14 15 14 14 16 14 13 14 16 18 18 18 17 17 16 16 16 16 15 15 14 13 12 11 10 10
2 2 1 2 2 3 4 6 5 4 4 6 5 5 5 2 1 1 1 3 2 3 2 4 6 7 7 10 18 24 22 20 18 17 15 14 14 13 13 15 16 16 17 16 15 14 13 12 12 12 12 11 12 11 10 11 10 11 13 12 12 13 11 10 10 11 13 13 14 14 14 15 16 15 15 17 16 13 13 16 18 17 17 16 16 15 15 16 15 15 14 12 11 11 10 9 9
2 2 1 3 5 4 5 6 5 3 4 7 6 5 4 3 3 0 0 1 1 5 2 4 7 7 9 14 20 22 20 20 18 17 15 14 14 13 12 14 16 16 17 17 16 15 14 13 12 13 13 13 13 12 11 11 11 13 14 13 13 13 12 12 11 12 13 13 14 16 16 17 17 16 15 16 14 12 13 16 16 16 16 15 15 14 14 14 14 14 13 12 11 10 9 8 7
2 3 2 6 5 4 4 6 6 3 5 7 5 3 3 4 3 1 2 2 4 7 4 3 5 7 9 11 16 19 18 17 17 16 14 15 14 14 14 15 17 18 18 18 17 16 15 14 13 13 13 14 15 14 12 11 12 14 14 13 13 13 12 11 11 11 12 13 14 15 16 17 18 16 15 14 13 12 13 15 15 15 14 14 14 13 12 13 14 14 14 13 11 10 9 8 7
2 3 5 6 3 2 4 5 6 3 4 5 3 2 2 3 1 1 5 5 2 6 6 6 8 11 12 11 13 16 16 14 15 14 13 14 14 14 15 16 17 18 19 18 17 17 16 16 15 14 14 15 15 16 15 13 13 14 14 13 12 12 12 11 11 11 11 12 13 15 16 16 17 16 16 14 12 13 14 14 14 14 14 13 12 12 12 12 13 14 13 12 11 10 9 8 7
1 5 8 5 3 0 4 3 5 4 4 3 3 3 2 1 0 1 5 5 4 5 6 6 10 15 15 14 14 13 13 12 13 13 13 14 14 15 15 15 16 17 18 18 19 17 17 17 16 15 15 15 15 16 16 15 14 14 13 13 12 11 11 11 11 10 11 12 13 14 16 17 17 16 16 13 12 14 14 14 14 13 12 11 10 11 12 13 13 13 12 11 10 9 9 8 7
3 5 6 5 3 1 3 2 4 4 6 4 3 3 0 2 0 0 3 5 4 3 5 8 10 14 16 16 14 13 13 12 13 15 16 16 16 16 17 17 17 18 18 19 20 18 17 18 17 16 16 16 16 16 16 15 15 15 14 13 12 12 11 12 11 10 11 12 12 13 15 16 16 15 14 13 13 14 13 13 13 12 11 11 11 12 13 14 14 13 12 11 9 8 7 6 6
6 4 4 2 2 1 2 3 3 4 5 3 1 1 1 1 0 2 2 6 4 3 4 10 9 12 15 14 13 13 13 14 15 17 18 18 18 18 18 18 18 20 19 19 20 19 18 17 18 18 16 16 16 16 16 15 15 15 14 14 13 13 13 12 11 10 11 13 12 11 14 14 14 14 14 14 14 14 13 13 12 11 11 11 12 12 13 13 13 12 12 10 8 7 6 5 4
7 4 3 2 3 2 2 5 5 5 3 1 2 2 2 1 1 2 5 7 4 2 5 11 10 11 12 13 13 12 12 13 14 16 17 16 16 15 16 17 18 19 20 20 21 21 20 17 18 19 17 17 17 17 17 15 15 14 14 14 13 13 14 13 12 12 13 14 14 13 14 15 15 15 15 15 14 14 13 12 12 12 12 12 12 12 12 12 12 11 10 9 7 6 4 3 2
5 3 1 3 3 2 3 5 5 4 2 2 2 1 4 2 2 3 7 6 2 3 8 11 11 12 11 11 13 13 12 13 13 15 16 15 14 14 15 17 18 20 21 21 21 22 21 18 19 20 18 18 18 18 18 16 16 15 14 14 12 13 14 14 13 14 14 16 16 16 17 17 16 16 16 15 14 13 12 12 12 12 13 13 12 12 12 11 10 9 8 6 5 3 2 1 2
2 3 4 4 1 1 4 4 4 3 1 3 2 2 5 4 2 3 7 4 4 7 9 10 11 12 11 11 11 12 12 14 16 15 14 13 14 16 17 18 19 20 20 20 22 22 20 18 19 20 19 18 18 17 17 17 16 15 14 14 13 13 15 14 14 15 16 16 17 17 17 16 15 15 14 13 13 13 12 12 13 13 13 13 12 11 10 9 8 6 6 5 4 3 3 3 3
2 4 4 5 3 2 3 4 3 2 1 2 3 1 4 3 1 5 5 2 5 8 10 11 11 11 11 11 10 9 10 14 17 14 13 15 17 19 19 20 21 20 21 22 22 22 20 18 20 20 19 19 18 16 16 16 15 15 15 15 14 13 16 16 15 16 17 17 17 16 16 15 14 13 13 12 12 12 12 13 13 13 12 12 11 10 8 7 5 5 4 4 4 4 4 4 3
2 4 3 5 6 2 2 3 3 2 1 2 3 1 4 1 5 8 3 2 3 8 10 11 10 10 9 10 9 8 9 12 15 15 16 19 20 21 21 23 22 20 21 21 22 22 22 21 20 20 20 20 19 17 16 16 16 16 16 16 15 14 16 16 16 16 16 17 16 16 15 14 13 12 12 12 12 12 13 13 13 13 12 11 10 8 6 5 4 3 3 4 4 4 4 4 4
2 3 3 2 6 4 4 2 4 3 1 2 2 2 5 6 9 8 3 1 4 7 9 10 9 9 8 8 8 8 9 11 14 17 20 21 21 22 23 20 17 14 13 15 19 22 22 22 21 21 21 20 19 18 16 17 16 17 18 17 16 16 17 17 16 16 16 16 16 15 15 15 13 12 13 13 13 13 13 14 13 12 11 10 8 6 5 3 2 2 3 4 4 4 4 5 5
3 2 2 2 2 4 6 1 5 4 1 1 3 1 6 7 8 6 2 2 6 7 7 8 8 8 8 8 8 9 9 11 16 20 22 22 23 22 17 13 14 16 17 17 18 20 22 22 22 21 21 21 20 18 17 17 17 18 19 18 17 17 17 17 17 16 16 16 16 16 15 15 14 13 13 13 13 13 13 14 13 11 9 8 6 5 3 2 3 4 4 4 3 3 4 5 5
3 1 2 3 1 4 7 2 7 5 1 1 3 2 6 7 7 6 2 4 6 7 6 7 8 8 8 8 9 9 8 12 16 19 22 23 24 19 15 16 21 24 23 22 21 21 21 22 23 22 21 21 21 18 17 18 17 18 19 18 17 18 17 18 17 17 16 15 16 16 16 15 14 14 14 13 13 14 14 13 11 10 8 6 5 4 3 3 4 4 4 3 2 2 3 3 3
4 1 2 2 2 3 5 2 3 3 2 1 1 2 4 3 4 6 3 3 5 6 5 6 7 7 8 7 8 8 8 9 11 16 21 24 24 19 20 25 27 24 22 22 23 23 22 21 22 23 22 22 21 19 18 18 16 17 19 18 17 18 18 18 17 17 17 15 15 15 15 16 15 14 14 14 14 14 13 12 10 9 7 6 5 4 4 3 3 3 2 1 1 2 2 2 2
3 1 2 4 3 2 3 3 3 2 3 2 1 2 5 5 4 6 4 1 4 6 6 5 6 5 6 5 6 7 8 9 10 15 21 25 23 20 25 28 25 24 24 22 22 23 23 22 22 23 23 21 21 20 19 18 15 17 19 18 17 17 17 18 18 18 17 15 14 14 14 15 15 15 14 14 14 13 12 11 9 8 7 7 6 4 3 2 2 1 1 1 2 2 3 3 4
3 3 3 3 2 3 4 3 3 5 2 3 4 4 10 11 7 5 4 2 4 5 4 3 3 4 4 4 5 5 7 9 10 15 21 25 23 23 25 27 26 27 27 24 23 22 22 24 23 23 22 20 19 20 19 18 16 17 19 17 16 16 16 17 18 18 17 15 14 13 13 15 15 15 14 14 13 12 11 10 9 8 8 8 7 4 3 3 3 3 3 2 2 3 4 4 5
5 5 4 2 4 5 5 4 5 7 4 4 7 6 8 9 7 4 5 2 4 3 2 2 1 2 3 4 4 4 5 7 8 12 17 20 23 25 27 29 31 31 29 27 24 22 23 24 24 24 24 22 19 19 18 17 16 17 18 17 15 15 16 17 19 18 16 15 14 13 13 14 15 15 14 13 13 12 11 10 10 9 9 8 6 5 5 6 5 5 4 3 2 3 4 4 4
3 2 0 2 4 6 4 3 5 6 4 4 7 6 7 8 7 5 4 1 5 4 3 3 1 1 2 3 4 5 5 6 7 10 12 18 23 27 30 31 32 32 30 27 23 23 24 25 26 26 26 24 21 20 19 18 19 18 18 19 17 16 17 18 19 19 17 15 14 13 13 14 15 15 14 13 12 12 11 11 11 11 9 8 6 6 7 8 7 6 5 3 3 3 4 4 2
0 1 3 4 4 6 4 3 4 5 4 3 3 5 9 9 7 5 3 3 4 5 5 3 1 1 2 2 3 5 5 4 5 6 7 16 22 26 28 31 32 31 27 25 24 26 26 26 28 28 27 26 24 24 21 20 22 22 20 19 19 17 18 19 20 20 19 17 15 13 14 15 15 16 15 13 12 12 12 11 11 10 8 8 8 8 9 8 7 7 5 3 3 3 4 4 1
2 1 1 4 4 4 4 2 2 3 4 3 2 5 8 9 5 5 4 4 3 2 4 3 3 2 1 2 3 4 4 5 5 3 5 13 21 24 26 29 30 28 24 25 28 29 28 27 28 28 29 27 26 25 23 22 23 23 21 19 19 18 17 19 20 20 19 17 15 14 14 15 15 15 15 13 12 12 11 11 10 9 9 10 10 10 10 8 7 7 6 4 3 3 3 3 1
3 4 2 5 4 1 4 4 3 1 1 1 3 3 5 6 3 2 1 2 3 3 3 3 2 3 1 3 2 3 4 6 5 4 4 9 17 22 24 25 25 25 25 27 29 28 28 28 28 28 29 28 27 25 24 23 22 21 19 17 17 17 15 17 18 18 18 17 16 15 15 16 16 16 16 14 13 12 11 10 10 10 10 10 12 12 11 8 7 7 6 4 3 3 2 1 2
4 6 6 6 7 4 4 2 2 2 3 0 4 3 5 4 2 2 1 2 3 2 3 2 1 1 1 2 3 3 3 5 6 6 6 7 12 18 21 22 23 27 28 28 28 27 28 29 29 28 28 28 27 26 24 22 20 20 19 16 15 16 14 15 17 16 17 17 18 17 16 16 17 16 16 14 13 12 11 11 11 11 11 11 12 12 10 9 7 7 5 4 3 3 2 1 1
4 5 11 13 10 5 5 4 5 4 4 3 3 2 5 4 3 4 2 2 0 1 1 1 1 2 2 3 3 3 3 4 6 7 7 8 10 14 19 22 25 26 26 27 27 26 26 27 27 27 27 27 27 26 24 23 21 21 20 18 17 17 15 16 19 19 18 19 19 19 17 17 18 17 16 15 13 12 11 12 12 12 12 12 12 11 10 9 7 6 5 4 4 3 2 2 2
2 5 10 11 7 6 8 8 5 3 3 3 3 4 4 5 4 5 3 2 3 3 2 3 3 2 2 2 2 4 4 4 4 6 5 6 10 13 16 20 23 21 21 26 26 23 23 25 26 26 26 26 27 26 25 23 22 21 21 20 19 18 17 17 20 20 20 20 20 19 18 18 18 17 17 16 14 13 12 12 12 13 13 12 12 11 10 9 7 6 6 5 4 3 2 4 5
2 5 5 8 8 9 11 9 4 3 3 3 4 4 1 4 4 5 3 2 5 5 5 5 4 2 2 2 3 4 5 5 4 5 5 6 9 10 14 17 17 15 17 21 21 18 20 23 22 23 25 25 25 26 26 24 23 22 21 21 19 19 19 17 17 18 18 19 20 20 19 18 18 18 17 16 15 14 13 12 13 14 14 12 12 12 11 9 8 7 6 5 4 3 3 4 6
4 3 7 8 7 7 8 6 2 0 2 2 4 1 1 4 5 5 3 1 5 6 6 6 5 3 2 2 3 4 5 5 3 4 5 5 6 9 15 16 13 13 14 14 14 14 15 20 20 18 20 23 24 25 26 25 24 23 22 21 19 19 19 18 17 17 17 18 20 20 20 19 18 18 17 15 15 14 13 12 13 15 14 13 13 12 11 9 8 8 7 5 4 3 3 4 5
2 5 9 7 5 6 6 5 2 3 3 2 5 2 2 4 5 4 3 0 4 6 6 6 5 3 2 3 3 2 4 4 3 4 5 4 5 9 13 13 10 12 15 12 13 15 15 19 20 18 18 19 23 25 25 25 24 22 22 21 20 19 19 18 17 17 17 17 19 20 20 19 19 18 17 15 14 14 13 13 13 15 15 13 14 13 11 9 9 8 7 6 5 4 3 3 3
3 4 8 8 6 5 4 3 4 4 3 4 5 5 4 1 5 3 1 2 4 4 4 5 4 3 2 2 2 3 3 3 3 2 5 6 6 8 10 10 8 11 15 14 15 18 17 18 20 21 20 19 21 24 25 24 23 23 23 23 22 20 20 19 18 19 18 18 19 20 20 19 19 19 18 15 14 13 13 12 13 14 14 14 14 14 12 10 9 8 7 6 5 4 3 3 3
3 3 5 5 3 4 4 4 3 2 3 5 4 4 6 2 4 2 3 5 4 4 3 4 5 3 2 2 1 2 3 1 2 2 6 6 6 8 9 11 10 11 13 14 16 17 17 18 19 20 20 19 20 23 25 24 24 24 24 23 23 22 22 21 21 21 21 20 20 20 20 19 20 20 19 17 15 14 13 12 13 14 15 15 15 14 12 10 9 8 7 6 5 4 4 3 3
5 5 5 4 3 3 2 3 1 2 5 3 2 1 3 4 5 3 5 5 4 6 4 3 4 2 1 1 0 1 1 1 2 3 6 4 3 6 8 10 11 12 13 14 16 18 18 19 20 20 19 18 19 22 25 24 24 24 24 24 24 23 22 22 23 23 23 21 20 20 20 20 21 22 22 20 17 15 14 12 12 14 15 15 15 15 13 11 9 8 6 6 6 6 5 5 4
4 4 4 4 3 2 1 3 2 3 4 2 2 1 0 3 3 3 5 5 4 4 3 1 2 3 3 2 1 1 2 1 2 2 5 5 3 4 7 9 9 10 11 14 17 20 20 19 21 21 19 18 18 22 24 24 24 25 25 25 24 24 23 23 24 23 23 23 21 20 21 21 23 24 24 22 19 17 15 13 12 13 14 15 15 15 13 12 10 8 7 6 7 7 6 6 5
2 4 5 4 4 4 2 3 3 3 3 2 3 0 2 2 2 4 5 4 3 1 2 2 2 3 3 2 1 1 2 1 3 3 3 4 4 5 7 9 11 12 13 16 18 20 20 19 20 20 19 20 21 22 24 24 24 24 25 25 25 24 24 24 24 23 23 23 22 21 21 22 24 25 24 22 20 18 16 14 14 14 14 15 15 16 14 12 11 9 7 7 7 7 7 7 6
1 2 4 1 3 5 3 3 4 3 1 1 2 1 3 3 3 4 3 2 3 3 3 3 3 2 3 3 2 2 2 1 3 3 3 3 5 7 8 10 13 15 16 18 19 20 20 20 21 20 20 22 23 23 24 24 24 24 25 25 24 24 24 24 24 23 23 23 22 21 21 21 23 23 22 21 20 18 16 15 15 15 15 15 16 16 15 13 12 10 8 8 8 8 8 7 7
1 1 2 3 3 7 5 1 1 2 2 1 1 2 4 2 0 3 3 3 3 3 3 2 2 2 3 3 3 3 3 2 3 4 4 4 5 8 11 13 15 16 18 20 21 22 22 23 23 21 20 22 25 25 24 24 24 24 24 25 24 24 25 25 25 24 23 22 21 21 20 20 21 21 21 21 19 17 16 15 15 16 16 16 16 16 15 14 12 10 10 10 10 9 9 7 7
3 1 4 3 2 4 4 2 3 4 1 2 2 2 4 2 0 3 2 2 2 3 1 1 2 3 3 4 4 4 4 3 3 4 4 5 6 9 12 14 16 18 20 22 23 23 23 23 23 22 22 24 27 26 24 24 24 24 24 24 24 25 25 25 25 24 22 22 20 20 20 20 20 21 21 20 18 17 16 16 16 16 17 17 17 16 14 14 13 11 11 11 11 10 10 8 8
4 4 3 2 2 1 1 1 1 1 1 3 3 3 3 3 3 3 2 5 5 4 2 2 4 5 5 5 5 5 4 4 4 5 5 5 7 10 13 15 17 19 21 22 23 23 23 23 22 21 22 25 26 26 24 24 24 24 24 25 25 25 25 25 25 24 22 22 21 20 20 21 21 21 21 20 18 17 18 17 17 17 18 18 18 17 15 15 14 12 11 11 12 12 11 10 9
4 3 2 2 2 3 1 1 2 2 2 2 3 3 3 5 4 4 6 7 7 5 4 4 5 6 6 5 5 5 5 5 5 5 6 6 8 12 15 15 17 19 21 21 22 22 22 22 21 21 22 23 23 24 24 23 24 24 24 24 25 25 25 25 24 23 22 22 21 20 21 22 22 21 21 20 19 18 19 18 18 18 19 20 20 18 17 16 14 13 12 12 13 13 12 11 10
2 2 1 1 2 2 2 1 1 2 3 2 0 2 4 5 4 5 6 6 7 7 6 5 5 5 6 6 5 5 5 6 6 6 7 7 8 12 16 17 17 18 20 20 21 22 22 22 22 22 23 22 23 24 24 24 24 24 23 24 25 25 25 25 23 23 22 21 20 20 21 22 22 22 22 21 20 19 19 19 18 18 19 21 22 21 19 18 16 15 13 13 14 14 14 13 12
5 3 3 3 2 3 3 1 2 1 3 3 3 1 6 5 3 4 5 4 6 6 6 5 5 5 5 5 5 6 6 6 6 6 6 6 8 11 13 15 16 16 18 19 20 20 21 22 23 22 22 23 23 24 25 24 24 23 23 23 24 25 25 24 23 22 22 21 19 19 19 21 21 22 23 22 21 20 19 19 18 18 19 20 22 22 21 19 18 17 15 15 15 15 15 15 14
Wind_Direction
155 155 147 136 137 129 36 43 64 356 71 70 316 352 281 248 207 337 345 339 40 251 222 188 142 138 132 162 167 161 131 163 169 139 207 267 133 153 155 158 159 155 153 151 152 150 151 156 153 148 145 146 147 146 147 147 149 151 152 155 158 159 159 161 163 161 160 159 160 161 157 159 163 160 154 152 152 149 146 147 146 143 143 147 149 145 141 139 143 143 139 135 136 140 143 136 130
159 154 143 133 121 112 24 68 90 356 56 59 324 294 294 314 11 360 335 320 221 285 307 137 104 96 58 72 129 118 65 14 152 156 199 128 134 150 158 159 158 155 153 152 153 151 152 156 152 147 145 146 145 144 146 145 148 152 155 160 163 160 157 158 163 165 163 161 160 157 153 154 156 151 149 149 150 147 144 146 144 143 143 142 143 144 142 140 141 141 139 136 134 135 138 132 130
157 152 146 144 75 57 94 42 98 58 70 81 313 267 317 351 341 324 307 290 260 298 326 131 85 86 63 47 66 94 189 6 109 125 124 139 144 156 161 158 158 156 153 153 153 151 152 154 151 149 148 147 144 144 145 144 149 154 160 167 164 160 161 162 168 170 163 151 148 153 148 147 151 144 146 147 147 148 144 146 143 140 142 141 141 143 141 140 141 140 139 135 131 130 130 128 131
154 155 151 138 42 33 69 42 122 111 100 137 305 284 312 322 303 309 297 287 272 324 23 147 58 29 90 90 43 76 177 358 134 136 139 153 163 163 159 157 157 155 152 153 152 150 152 152 152 151 149 147 146 146 146 145 149 158 166 167 162 164 167 169 175 169 145 137 157 165 150 155 165 147 151 151 146 153 149 146 141 137 141 140 140 140 140 141 143 142 138 133 130 129 128 129 135
154 160 181 89 49 52 74 72 90 85 131 176 136 283 275 265 301 316 307 299 270 59 62 124 79 23 80 97 65 121 192 93 146 158 142 152 167 162 157 158 156 153 153 153 151 150 150 151 153 153 150 147 147 148 147 145 148 167 172 160 160 169 172 173 171 154 136 158 182 170 153 167 175 153 161 156 146 157 154 144 138 136 138 136 136 137 139 140 140 139 136 135 133 131 131 133 139
160 173 219 338 80 157 75 70 57 56 99 158 154 264 275 275 302 314 312 314 334 91 60 69 110 107 77 30 59 104 222 145 142 164 150 149 164 162 157 157 154 152 154 153 151 148 147 150 153 152 150 148 151 152 148 145 152 175 171 151 160 170 175 175 156 136 148 179 186 162 159 176 176 161 165 156 147 161 156 144 138 135 134 132 133 132 134 135 135 134 133 135 133 131 131 134 137
167 197 270 40 24 73 74 74 65 27 330 295 199 268 294 293 288 313 319 332 20 51 65 95 115 104 80 276 79 19 339 168 144 161 162 155 160 159 157 156 152 152 154 152 148 145 146 152 153 151 151 153 156 156 151 151 161 177 168 147 164 171 172 174 147 132 158 186 187 155 151 168 177 166 163 152 148 163 158 147 140 135 133 130 128 126 127 129 128 128 129 130 130 128 128 129 130
179 257 4 84 30 39 73 66 56 288 277 277 270 275 289 290 277 310 308 316 340 330 108 147 118 92 338 338 39 354 24 122 149 157 160 153 156 159 159 157 151 150 152 151 146 145 148 153 153 152 153 156 159 159 159 158 162 173 171 156 168 177 168 166 145 134 160 184 194 153 133 156 176 164 160 149 144 163 162 150 140 135 131 127 125 123 124 124 123 124 124 125 125 124 125 127 130
271 322 14 75 62 43 56 39 22 248 264 290 290 277 282 291 275 241 276 280 244 210 146 157 98 95 149 42 54 337 47 118 139 145 152 152 158 161 161 157 152 150 153 152 148 149 149 154 154 154 156 159 160 161 168 165 163 168 171 165 180 193 173 163 149 138 151 172 191 139 116 152 171 155 154 147 143 163 165 150 138 133 129 126 126 125 125 123 122 122 121 122 121 120 121 126 129
336 17 89 69 75 46 29 358 278 255 262 278 277 267 270 270 233 214 245 266 226 163 113 92 71 106 130 63 23 327 94 130 135 136 148 155 161 163 161 157 155 154 155 153 153 152 149 155 157 160 160 161 162 162 170 168 168 173 171 167 184 198 178 168 157 140 138 141 152 122 112 147 161 150 154 150 149 159 161 148 134 129 127 126 127 125 126 124 122 120 119 119 117 116 118 121 122
344 350 77 71 60 60 119 229 258 262 271 282 270 260 248 215 224 234 223 245 212 135 140 90 84 120 99 64 329 286 132 136 137 138 148 156 161 163 161 159 160 158 156 156 156 153 150 158 163 166 162 164 164 155 159 164 174 178 176 179 186 188 175 172 160 140 138 131 138 134 126 145 158 160 158 154 151 152 153 147 133 126 125 124 124 124 126 124 122 121 120 119 118 119 120 118 116
4 331 56 81 77 133 177 216 251 261 281 293 275 275 309 249 276 270 224 240 153 128 175 141 142 143 82 50 271 155 148 146 145 144 151 156 158 163 164 161 161 162 159 159 159 155 155 160 167 168 163 171 162 145 151 158 168 168 176 197 191 177 174 176 158 143 149 143 145 144 135 146 164 165 161 153 145 147 152 147 131 124 123 122 122 124 124 122 122 122 121 121 121 122 122 121 117
46 193 61 65 153 158 174 224 264 274 285 262 250 289 351 305 263 217 270 239 142 141 197 153 147 125 86 111 131 164 164 161 151 146 153 155 158 164 167 165 163 165 164 163 164 162 161 163 169 164 163 172 156 146 155 156 160 161 174 196 185 165 167 175 156 143 156 154 149 149 146 149 161 163 158 148 143 152 155 143 129 124 123 122 122 124 123 122 122 122 122 121 121 121 121 121 119
130 142 80 28 65 155 174 148 272 256 264 253 225 265 289 267 253 192 122 144 174 176 138 130 138 108 97 153 158 194 173 162 154 145 150 154 159 163 165 166 166 167 166 166 167 166 164 166 167 157 161 167 154 147 151 154 152 157 169 172 169 155 152 165 154 146 155 156 153 155 154 150 157 165 156 143 144 157 153 138 128 125 125 124 124 125 125 124 123 122 124 123 122 123 122 122 122
167 113 90 86 356 322 215 167 213 198 246 249 209 236 254 253 259 18 157 168 209 172 109 113 143 104 152 174 194 199 166 160 155 145 148 149 154 158 161 162 164 167 167 168 168 170 168 167 164 156 158 158 155 151 150 153 144 151 161 156 161 149 142 154 155 151 146 150 156 156 151 149 156 166 156 142 146 159 151 136 129 127 125 125 125 126 127 126 126 128 129 128 129 129 126 125 123
156 95 72 44 325 298 247 173 151 152 244 238 194 158 308 283 216 68 249 196 125 148 121 129 184 88 161 181 183 162 157 157 153 146 145 142 145 152 156 157 162 166 168 170 171 174 172 167 162 156 158 153 151 150 148 148 138 144 146 146 155 145 143 149 154 154 143 149 157 153 150 150 155 159 153 146 151 162 154 139 131 128 125 125 127 129 130 131 134 136 136 136 137 135 131 129 125
79 74 62 350 245 214 219 180 172 175 217 223 216 176 214 299 7 344 284 18 80 156 111 71 46 32 140 155 141 146 153 156 150 144 142 140 143 149 153 157 163 167 170 173 175 178 176 170 161 156 157 151 144 139 137 138 137 140 138 145 156 149 144 144 151 153 145 148 150 151 152 149 152 154 151 150 155 164 156 141 131 128 127 127 129 131 133 136 138 140 142 142 142 142 138 134 128
70 87 100 270 217 199 197 185 191 173 180 203 215 203 197 284 312 317 329 2 16 139 65 51 50 42 90 116 133 143 151 155 151 148 146 145 148 152 157 163 166 170 173 175 179 181 179 172 163 159 159 152 143 138 134 133 136 138 137 144 155 152 145 147 156 155 153 151 148 153 152 146 149 153 151 149 154 166 156 136 130 129 129 128 129 131 133 137 141 144 147 147 150 150 144 136 127
126 121 158 244 208 206 199 174 180 164 167 191 203 200 188 218 220 158 220 311 141 140 75 60 71 69 93 116 133 143 152 158 159 156 154 155 159 161 162 169 172 174 178 178 181 183 183 175 165 163 162 157 149 145 142 137 136 138 140 142 146 148 145 152 159 159 159 155 152 152 149 145 149 153 148 145 160 171 148 131 131 131 129 129 129 130 133 139 144 148 152 156 159 156 149 141 132
179 122 192 249 213 225 232 180 184 166 145 169 192 197 191 220 217 165 152 124 160 168 154 123 122 126 126 131 140 148 156 161 165 164 162 163 166 169 169 175 178 179 182 182 182 184 186 179 170 168 166 164 158 154 150 144 140 140 145 146 142 141 142 151 156 161 160 152 148 148 149 148 148 152 147 151 173 164 135 129 133 132 130 132 133 132 135 141 147 151 156 161 163 159 156 153 148
197 156 207 241 177 217 251 191 178 142 133 163 161 159 220 228 197 164 144 119 185 204 194 177 160 151 145 148 152 155 160 165 173 174 171 170 170 174 178 181 182 183 183 183 184 185 186 183 177 174 173 171 167 163 157 150 148 147 150 152 148 143 141 148 155 160 159 152 149 148 151 149 147 151 149 159 170 146 132 135 137 138 137 136 138 137 139 144 148 152 156 159 160 160 160 161 163
196 214 227 237 135 291 284 161 147 121 104 117 124 167 224 182 152 186 148 151 214 213 199 180 160 157 156 157 159 159 163 170 179 182 181 180 176 176 181 182 182 183 183 186 187 186 186 187 184 178 178 177 174 173 167 162 160 156 156 157 157 155 151 153 157 159 157 158 158 153 152 151 149 152 154 163 160 142 139 141 142 145 140 137 137 135 134 133 134 139 144 148 153 157 161 165 171
215 252 256 251 176 287 323 92 136 118 114 139 170 200 76 75 259 261 163 197 225 230 174 162 163 161 155 154 159 164 169 177 185 188 188 186 182 179 180 182 181 182 183 188 189 186 186 187 187 182 180 181 180 181 176 172 169 164 164 164 166 172 169 162 161 160 157 161 164 158 156 154 151 154 161 166 158 150 147 147 149 147 142 139 134 130 127 121 120 123 127 135 141 149 157 167 179
209 271 303 286 150 141 352 76 90 87 120 190 193 111 37 80 26 8 270 237 239 290 154 149 155 154 151 156 164 169 173 182 191 193 193 192 189 183 181 183 184 183 182 188 191 188 186 185 187 186 182 183 184 186 183 177 174 169 171 175 174 180 179 171 164 163 161 166 170 166 162 159 155 161 171 169 163 158 154 153 152 147 144 141 135 130 125 119 117 117 120 126 132 143 155 172 198
204 244 292 28 58 53 53 76 63 61 91 6 85 110 325 309 312 321 265 250 245 265 146 139 146 153 159 165 169 172 178 187 192 194 197 198 194 183 181 184 184 185 183 187 190 190 189 185 187 188 187 186 186 189 186 181 179 174 178 181 177 177 178 174 169 166 164 167 171 172 169 166 165 172 175 171 167 162 157 156 153 149 147 142 137 131 125 121 120 121 123 127 133 143 155 177 221
212 209 21 61 30 7 54 71 53 46 62 43 110 271 328 316 299 274 245 238 195 147 143 143 151 162 171 173 173 177 182 190 194 194 196 196 192 186 183 184 186 188 187 187 188 190 190 188 189 191 192 191 189 191 188 184 184 181 182 182 177 174 174 174 171 168 165 165 169 171 172 173 175 177 176 172 168 163 158 156 153 152 150 145 139 134 130 127 126 125 125 124 125 128 114 63 29
192 121 83 74 64 31 64 74 45 24 54 74 139 278 322 327 341 262 252 229 145 136 148 156 159 169 177 177 181 183 185 193 195 194 192 190 190 190 187 187 190 191 188 187 188 190 189 190 192 192 195 195 190 191 190 186 187 187 182 182 180 174 174 175 170 169 167 166 169 169 172 176 179 178 174 171 167 164 161 158 156 156 154 149 144 140 136 131 128 122 114 108 101 96 77 51 36
101 120 82 27 34 75 86 94 59 25 70 105 125 240 310 350 336 234 259 268 150 143 154 165 168 176 180 181 186 188 193 196 194 195 193 191 194 194 191 190 190 191 190 190 190 191 190 191 193 192 195 197 191 188 188 187 190 190 183 183 184 177 178 177 170 170 169 168 171 171 173 176 179 177 174 172 167 166 165 162 162 160 158 155 152 149 142 134 125 112 99 95 91 88 75 56 45
85 104 83 344 10 34 219 143 122 106 117 197 128 341 292 245 232 236 280 316 157 140 159 171 174 183 182 184 190 193 198 192 192 201 203 201 199 195 195 196 191 189 191 191 190 191 194 195 194 192 195 199 196 191 189 188 190 189 185 186 187 181 181 179 173 172 170 171 173 174 175 176 177 178 176 172 167 169 170 169 168 165 163 162 162 159 151 140 126 107 92 94 94 87 71 56 47
53 60 90 347 4 337 275 116 124 125 124 212 138 323 275 250 249 251 298 311 136 134 168 174 177 188 187 189 194 202 199 190 196 205 208 207 203 200 199 193 182 179 184 189 191 192 196 197 195 194 195 199 199 194 191 188 187 187 188 189 188 185 183 181 178 177 174 174 176 176 177 178 179 178 177 172 169 173 176 175 173 169 169 169 170 170 162 153 135 105 97 100 97 83 59 46 38
44 32 47 30 11 296 299 31 144 143 144 203 115 213 269 276 277 281 285 193 151 146 173 178 182 188 193 196 197 207 204 199 204 205 208 209 208 205 190 166 172 188 190 192 197 196 196 197 196 194 194 197 198 194 190 186 185 187 190 191 188 187 186 185 184 183 181 179 178 177 178 182 183 181 180 177 175 178 179 178 174 170 172 173 177 180 168 156 133 104 98 94 84 68 41 33 28
41 52 323 351 187 265 305 258 171 161 183 16 103 187 274 279 282 309 315 174 159 157 170 182 189 190 194 199 202 212 213 210 209 207 209 211 211 199 168 171 192 198 196 195 195 195 198 199 198 195 192 194 196 193 189 186 185 188 191 190 189 190 190 190 189 189 188 184 182 181 182 186 187 185 184 183 181 180 179 176 171 170 173 177 185 178 149 144 130 104 91 74 62 40 24 26 13
3 81 251 276 206 274 317 293 219 174 119 49 122 215 282 268 270 332 356 166 157 161 176 184 191 196 197 196 203 211 218 218 213 212 210 210 211 190 175 193 198 194 196 196 192 190 195 199 199 197 193 193 194 192 190 187 185 188 190 189 190 193 194 194 193 193 194 192 190 186 185 188 190 188 186 187 185 180 176 174 173 176 181 184 182 159 134 139 132 104 81 41 11 359 5 7 344
327 27 244 251 215 238 291 304 265 174 112 148 171 233 260 262 279 344 345 207 162 177 189 192 193 201 203 196 201 205 214 219 216 215 210 209 207 187 186 193 186 190 197 195 196 194 194 198 200 198 195 193 192 192 191 188 187 189 190 191 194 196 198 198 195 196 198 199 199 193 188 190 193 191 189 189 187 182 178 179 185 191 191 185 176 159 140 154 172 192 216 266 303 332 349 341 325
205 204 217 269 282 250 252 280 216 172 151 162 152 233 255 268 287 331 318 227 180 213 197 177 195 207 217 216 212 205 212 221 223 220 212 209 201 186 189 184 176 191 197 193 201 201 194 197 198 197 195 192 190 192 190 187 189 191 192 194 196 198 199 199 197 196 199 203 203 200 193 191 195 193 190 190 187 185 186 189 197 200 195 184 177 179 188 215 239 232 226 251 278 315 336 326 318
168 180 167 222 297 275 230 245 228 178 166 188 183 222 252 268 282 312 309 208 162 230 193 151 184 204 222 235 243 237 232 236 237 231 216 204 193 184 185 183 180 190 196 196 201 200 195 193 194 194 196 192 186 186 184 183 188 191 193 195 196 195 195 199 201 197 199 204 205 205 200 193 195 193 186 187 187 187 191 196 201 199 195 189 188 203 223 243 251 242 244 253 264 313 330 323 321
115 129 210 261 270 280 236 231 248 175 159 228 200 223 263 264 270 288 300 185 148 172 186 205 299 10 249 246 261 255 252 256 260 253 217 192 185 181 181 182 181 183 191 195 194 196 196 191 192 193 194 193 188 186 183 184 189 190 192 196 195 191 188 194 201 200 200 203 204 207 205 194 193 191 183 185 188 189 191 194 197 196 198 201 205 222 239 251 250 247 252 253 279 326 338 341 355
106 226 304 307 254 264 251 216 254 185 172 271 195 211 259 259 266 274 247 172 165 177 180 199 190 31 299 277 267 262 266 276 273 261 199 177 176 175 176 180 182 181 182 186 188 194 195 193 193 192 192 193 193 192 188 189 193 193 193 195 195 190 187 191 197 201 200 201 204 207 205 195 192 192 187 188 192 191 191 191 194 197 204 214 220 232 243 250 248 247 249 245 280 318 330 343 61
177 152 342 303 265 281 290 300 312 186 182 279 198 193 255 264 265 264 231 168 158 162 154 157 146 140 251 267 253 262 273 273 258 223 177 171 167 167 172 179 183 179 174 182 191 194 191 192 194 191 192 193 195 197 193 194 196 197 196 196 196 193 190 193 197 202 200 200 204 206 203 195 193 195 193 194 194 192 194 194 199 206 214 222 227 235 243 250 246 242 242 237 269 303 316 341 126
170 156 158 266 260 265 287 303 8 85 186 228 170 187 272 287 295 278 265 137 114 86 106 116 118 134 209 267 265 270 266 257 238 195 177 170 163 165 169 174 175 170 174 185 193 192 188 191 193 191 192 192 194 198 197 197 195 195 197 197 199 197 195 196 199 205 205 203 205 206 205 197 195 198 197 197 196 195 199 201 207 214 220 226 229 235 242 248 240 233 233 227 251 285 300 354 152
232 194 190 242 249 203 218 247 75 24 335 89 107 27 308 301 304 265 321 42 92 84 77 87 24 15 314 292 305 303 281 252 224 193 183 174 170 169 165 165 165 168 178 185 190 193 189 190 193 192 191 191 193 197 198 195 189 189 191 193 198 199 199 198 199 204 205 205 205 205 206 200 196 198 200 201 200 201 204 207 211 215 219 225 228 233 238 238 226 222 225 216 231 270 281 271 156
289 226 205 223 235 196 153 137 96 52 315 262 110 53 297 304 295 255 287 5 121 83 60 159 280 339 332 311 309 296 285 252 220 199 191 177 170 165 158 162 166 170 177 181 190 198 192 188 190 190 190 190 192 195 197 195 188 187 188 188 193 197 201 202 201 203 202 202 203 203 205 202 197 198 202 205 205 206 209 212 213 212 216 221 224 228 228 223 213 210 213 208 221 255 263 232 163
320 250 210 208 202 145 148 154 123 115 242 269 101 142 260 312 315 287 301 289 277 313 317 252 230 235 261 267 281 279 279 266 224 205 200 180 172 163 155 166 174 173 174 178 188 197 192 189 188 189 191 190 191 193 196 196 191 189 189 190 193 197 203 208 207 207 206 203 199 201 205 203 200 200 204 208 208 208 211 215 214 211 214 217 220 221 213 205 201 199 198 198 213 232 235 211 172
250 250 162 151 154 155 168 162 138 181 195 358 27 117 182 307 288 296 309 269 298 311 292 278 256 230 237 240 266 268 262 269 249 209 196 188 183 160 144 160 175 177 176 178 185 189 190 190 188 190 191 189 191 192 194 197 196 194 193 193 195 199 207 214 211 208 207 204 198 199 204 205 204 204 207 211 210 208 213 218 214 210 212 214 217 213 201 195 193 192 191 191 202 209 211 199 176
249 210 115 131 151 153 153 132 90 10 90 348 307 118 117 274 275 320 353 270 299 297 278 281 283 292 298 265 275 264 252 269 280 226 205 195 176 139 138 153 163 170 176 176 176 180 187 190 188 192 194 190 189 191 192 197 200 200 197 196 197 201 210 217 215 206 203 202 199 199 204 206 207 207 210 213 213 211 216 221 216 211 210 213 215 209 198 194 191 188 190 193 200 204 203 195 183
233 118 92 84 83 90 97 92 72 36 44 261 254 176 148 279 285 330 20 331 277 276 274 277 276 292 291 266 289 297 266 267 278 251 213 180 136 118 137 148 137 154 179 181 174 180 193 194 189 189 197 196 191 190 192 196 200 202 202 201 200 200 208 216 215 208 203 201 200 201 205 208 209 210 211 212 212 211 215 218 216 212 212 214 215 210 203 198 192 188 189 195 204 210 211 201 190
168 94 75 71 57 59 67 62 80 56 335 267 244 190 150 309 286 270 204 214 229 245 284 295 284 300 297 273 319 331 286 269 288 255 168 147 135 123 130 141 137 156 178 182 177 183 194 198 192 188 193 198 195 192 193 195 197 201 206 207 205 202 205 212 213 207 202 199 200 203 207 209 211 212 212 211 209 207 209 212 213 213 215 216 216 213 208 203 196 193 192 197 205 213 218 215 200
140 81 77 81 17 24 38 1 42 77 270 272 268 193 147 193 267 262 253 246 228 215 243 277 272 287 315 302 358 329 287 267 1 86 125 118 129 138 129 138 161 173 173 175 183 191 194 195 196 193 192 198 201 196 194 196 199 203 209 210 210 208 206 210 213 210 205 200 200 203 207 210 212 213 214 212 207 206 208 209 211 214 215 216 216 214 211 206 200 199 201 207 212 221 228 225 216
96 88 81 81 12 18 29 318 317 220 252 269 315 98 143 226 246 262 273 264 246 222 213 242 251 236 266 287 305 310 293 128 76 99 127 126 141 154 141 143 168 183 177 173 183 196 198 196 198 197 195 199 205 202 197 197 201 207 211 211 212 212 209 212 215 214 212 208 204 204 207 210 212 213 214 213 209 208 212 213 213 214 213 214 216 216 212 208 204 202 208 218 226 234 242 238 225
129 132 113 109 93 64 317 274 270 270 266 273 321 27 235 272 266 253 263 271 262 234 217 217 212 181 185 211 208 278 302 127 142 150 155 173 187 166 154 159 176 187 186 180 184 194 199 199 201 201 201 203 208 208 202 198 201 208 212 212 213 214 212 212 215 216 215 215 213 210 211 213 212 213 213 212 210 212 216 217 217 217 215 213 216 217 214 210 208 208 214 226 234 241 247 244 236
160 159 129 131 151 146 200 223 207 248 261 293 316 326 173 233 261 255 263 288 307 227 164 142 134 144 150 150 162 261 288 128 150 185 183 189 201 186 170 174 187 194 194 192 193 197 200 202 204 202 204 211 214 212 205 200 201 208 212 213 213 215 216 215 216 216 216 217 218 217 216 216 214 213 213 212 213 216 219 219 220 222 219 216 217 218 217 215 213 213 220 230 237 245 252 250 248
245 156 105 129 191 141 139 178 171 189 201 302 288 226 208 211 242 286 311 350 9 59 99 106 110 126 126 137 197 229 246 167 159 192 206 203 204 200 192 189 193 196 198 199 199 200 203 207 207 201 201 210 215 213 207 203 202 206 211 212 212 215 217 217 216 216 216 217 220 222 221 220 216 214 213 213 215 219 222 223 223 224 221 220 220 219 219 219 218 219 227 235 240 246 253 253 253
209 115 161 232 178 119 113 154 79 76 121 255 283 285 303 321 305 322 19 46 1 20 69 119 152 159 152 186 217 221 218 195 186 204 210 205 204 207 207 204 201 198 200 204 204 205 209 211 209 203 198 206 214 214 208 205 203 205 209 211 213 214 216 217 217 216 216 218 222 226 224 220 217 214 213 213 216 220 222 223 224 224 223 222 222 221 221 221 221 224 232 240 244 247 252 254 258
115 178 210 200 99 91 102 115 17 34 155 275 339 310 300 344 352 312 52 124 273 311 355 171 188 189 200 221 228 223 212 193 198 213 216 209 204 210 213 211 210 206 205 209 210 211 213 212 209 204 199 203 210 210 207 205 204 205 208 211 213 215 215 217 219 217 217 220 224 226 223 218 215 212 211 213 217 219 218 220 224 225 224 223 222 223 223 222 223 227 236 242 244 246 249 253 258
112 164 184 112 106 150 49 105 109 75 195 293 324 314 274 204 221 261 191 193 222 251 261 210 205 209 215 228 235 233 216 196 201 212 222 216 205 211 214 212 213 211 210 212 213 212 211 212 212 208 206 206 206 206 206 207 207 206 209 212 214 215 215 217 219 218 220 222 224 224 222 219 216 213 212 215 218 218 217 220 223 224 224 222 222 223 224 225 226 230 238 242 242 244 247 250 257
60 72 32 36 127 157 154 136 160 144 148 270 312 334 280 226 214 200 203 207 198 197 223 225 220 217 217 221 228 232 220 206 204 205 218 220 208 211 213 213 215 214 213 213 212 211 212 213 213 211 212 210 207 207 206 207 208 208 209 212 213 213 214 217 218 217 218 222 224 225 223 222 220 218 217 217 219 220 219 221 221 220 220 221 223 224 225 226 228 232 239 243 243 244 247 252 258
99 48 352 351 72 130 153 77 64 119 139 179 280 325 274 253 207 190 211 215 193 184 195 221 233 223 221 224 222 227 227 217 209 202 212 220 212 210 212 215 218 218 215 212 211 211 211 211 211 210 211 209 207 207 208 209 209 208 208 210 211 211 211 214 217 216 217 221 227 228 225 224 224 223 221 220 223 224 223 223 221 219 219 220 223 225 226 227 229 233 238 243 245 246 250 255 258
156 158 186 173 132 131 128 37 319 80 118 159 153 209 269 265 206 215 235 217 203 194 182 203 234 228 224 230 223 223 230 224 211 202 209 216 212 210 210 212 214 214 213 211 209 209 208 208 208 207 207 207 207 206 207 210 209 207 207 209 211 210 209 211 214 217 219 223 228 229 226 226 227 225 222 223 227 229 227 224 222 221 220 222 223 224 225 227 230 233 238 242 244 246 250 253 255